Home   Weather   Rodgau   Past weeks

Flag for Germany Past Weather in Rodgau, Hesse, Germany — Yesterday and Last 2 Weeks

Now
61 °F

Sprinkles. Broken clouds.


Feels Like: 61 °F
Forecast: 56 / 63 °F
Wind: 12 mph from Southwest

Location: Frankfurt-M-Flughafen Airport

Current Time: Jul 24, 2017 at 6:55:28 pm

Latest Report: Jul 24, 2017 at 6:20 pm


Visibility: N/A

Pressure: 29.80 "Hg

Humidity: 83%

Dew Point: 55 °F

Location of RodgauLocation

Past Weather in Rodgau — Graph

°F

Rodgau Temperature Yesterday

Maximum temperature yesterday: 72 °F (at 1:50 pm)
Minimum temperature yesterday: 63 °F (at 4:20 am)
Average temperature yesterday: 67 °F

High & Low Weather Summary for the Past Weeks

 TemperatureHumidityPressure
High93 °F (Jul 19, 4:20 pm)100% (Jul 9, 11:20 pm)30.24 "Hg (Jul 9, 11:20 pm)
Low48 °F (Jul 13, 4:50 am)34% (Jul 19, 2:50 pm)29.74 "Hg (Jul 10, 2:20 pm)
Average68 °F70%29.97 "Hg
* Reported Jul 9 5:20 pm — Jul 24 5:50 pm, Rodgau. Weather by CustomWeather, © 2017

Note: Actual official high and low records may vary slightly from our data, if they occured in-between our weather recording intervals... More about our weather records

Advertising

Rodgau Weather History for the Previous 24 Hours

Scroll right to see more
 ConditionsComfort  
Time TempWeatherWind HumidityBarometerVisibility
5:50 pm
Mon, Jul 24
61 °FThundershowers. Broken clouds.10 mph83%29.80 "HgN/A
5:20 pm63 °FSprinkles. Broken clouds.14 mph77%29.80 "HgN/A
4:50 pm64 °FScattered showers. Broken clouds.12 mph64%29.77 "HgN/A
4:20 pm64 °FScattered showers. Broken clouds.12 mph68%29.77 "HgN/A
3:50 pm66 °FScattered showers. Partly sunny.10 mph60%29.77 "HgN/A
3:20 pm64 °FSprinkles. Broken clouds.14 mph68%29.77 "HgN/A
2:50 pm66 °FScattered showers. Broken clouds.12 mph64%29.77 "HgN/A
2:20 pm66 °FScattered showers. Broken clouds.15 mph60%29.77 "HgN/A
1:50 pm64 °FScattered clouds.10 mph64%29.77 "HgN/A
1:20 pm66 °FBroken clouds.10 mph68%29.77 "HgN/A
12:50 pm64 °FBroken clouds.10 mph73%29.77 "HgN/A
12:20 pm61 °FBroken clouds.10 mph77%29.77 "HgN/A
11:50 am59 °FLight rain. Broken clouds.12 mph88%29.77 "HgN/A
11:20 am59 °FLight rain. Broken clouds.12 mph88%29.74 "Hg2 mi
10:54 am59 °FLight rain. Broken clouds.8 mph88%29.74 "Hg6 mi
10:23 am57 °FLight rain. Mostly cloudy.14 mph94%29.74 "Hg2 mi
10:20 am57 °FRain. Mostly cloudy.14 mph94%29.74 "Hg2 mi
10:03 am57 °FRain showers. Partly sunny.9 mph94%29.74 "Hg2 mi
9:53 am57 °FLots of rain. Partly sunny.10 mph100%29.74 "Hg1 mi
9:24 am59 °FLight rain. Partly sunny.12 mph88%29.74 "HgN/A
8:52 am59 °FLight rain. Mostly cloudy.12 mph94%29.74 "HgN/A
8:50 am59 °FRain. Mostly cloudy.13 mph88%29.74 "HgN/A
8:20 am59 °FHeavy rain. Fog.7 mph94%29.74 "Hg2 mi
8:04 am59 °FRain. Fog.6 mph94%29.77 "Hg2 mi
7:53 am59 °FLight rain. More clouds than sun.8 mph94%29.74 "Hg4 mi
7:31 am59 °FLight rain. More clouds than sun.6 mph88%29.77 "Hg6 mi
6:50 am59 °FLight rain. More clouds than sun.3 mph88%29.77 "HgN/A
6:20 am59 °FLight rain. More clouds than sun.2 mph94%29.80 "HgN/A
5:50 am59 °FLight rain. More clouds than sun.3 mph94%29.80 "HgN/A
5:20 am59 °FLight rain. Overcast.3 mph88%29.83 "HgN/A
4:50 am61 °FMostly cloudy.6 mph83%29.86 "HgN/A
4:20 am61 °FClear.7 mph77%29.86 "Hg10 mi
3:50 am61 °FClear.5 mph77%29.86 "Hg10 mi
3:20 am61 °FClear.1 mph77%29.86 "Hg10 mi
2:50 am61 °FClear.2 mph77%29.89 "Hg10 mi
2:20 am61 °FClear.1 mph77%29.89 "Hg10 mi
1:50 am61 °FClear.3 mph77%29.92 "Hg10 mi
1:20 am63 °FPassing clouds.6 mph68%29.92 "HgN/A
12:50 am63 °FClear.7 mph68%29.92 "Hg10 mi
12:20 am63 °FClear.7 mph68%29.95 "Hg10 mi
11:50 pm
Sun, Jul 23
63 °FClear.7 mph68%29.95 "Hg10 mi
11:20 pm64 °FPassing clouds.5 mph60%29.95 "HgN/A
10:50 pm64 °FClear.6 mph60%29.95 "Hg10 mi
10:20 pm64 °FClear.6 mph64%29.95 "Hg10 mi
9:50 pm64 °FClear.5 mph60%29.95 "Hg10 mi
9:20 pm66 °FPassing clouds.5 mph56%29.95 "HgN/A
8:50 pm68 °FSunny.8 mph49%29.95 "Hg10 mi
8:20 pm70 °FPassing clouds.7 mph46%29.95 "HgN/A
7:50 pm70 °FPassing clouds.9 mph46%29.95 "HgN/A
7:20 pm72 °FPassing clouds.9 mph44%29.95 "HgN/A
6:50 pm70 °FSunny.12 mph46%29.98 "Hg10 mi
6:20 pm70 °FSunny.13 mph46%29.98 "Hg10 mi
Weather by CustomWeather, © 2017

See weather overviewHow to use our weather pages